This is the latest recevied weather packets stored in our database for station/object DG1ROH. If no packets are shown the sender has not sent any weather packets the latest 1 day(s).
| Time | Temp. | Humidity | Pressure | Rain* | Wind** | Luminosity | Snow |
|---|---|---|---|---|---|---|---|
| 1778060681 | 10.56° C | 95% | 1005.2 hPa | 2.54 mm | - | 127 W/m² | - |
| 1778060560 | 10.56° C | 95% | 1005.2 hPa | 2.79 mm | - | 144 W/m² | - |
| 1778060321 | 10.56° C | 95% | 1005.2 hPa | 3.05 mm | - | 127 W/m² | - |
| 1778059836 | 10.56° C | 94% | 1005.2 hPa | 3.3 mm | - | 105 W/m² | - |
| 1778059475 | 10.56° C | 95% | 1005.1 hPa | 3.56 mm | - | 107 W/m² | - |
| 1778059355 | 10.56° C | 94% | 1005.1 hPa | 3.56 mm | - | 76 W/m² | - |
| 1778059236 | 10.56° C | 95% | 1005.1 hPa | 3.81 mm | - | 86 W/m² | - |
| 1778058992 | 10.56° C | 95% | 1005.1 hPa | 3.81 mm | - | 88 W/m² | - |
| 1778058634 | 10.56° C | 95% | 1005 hPa | 4.06 mm | - | 111 W/m² | - |
| 1778058390 | 10° C | 94% | 1005 hPa | 4.32 mm | - | 79 W/m² | - |
| 1778058273 | 10° C | 94% | 1005 hPa | 4.32 mm | - | 62 W/m² | - |
| 1778058030 | 10° C | 94% | 1005 hPa | 4.57 mm | - | 51 W/m² | - |
| 1778057910 | 10° C | 94% | 1005 hPa | 4.57 mm | - | 49 W/m² | - |
| 1778057671 | 10° C | 94% | 1004.9 hPa | 4.32 mm | - | 54 W/m² | - |
| 1778057549 | 10° C | 94% | 1005 hPa | 4.32 mm | - | 56 W/m² | - |
| 1778057429 | 10° C | 94% | 1005.1 hPa | 4.32 mm | - | 58 W/m² | - |
| 1778057188 | 10° C | 94% | 1005 hPa | 4.06 mm | - | 56 W/m² | - |
| 1778057069 | 10° C | 94% | 1005 hPa | 4.06 mm | - | 56 W/m² | - |
| 1778056583 | 10° C | 94% | 1005 hPa | 3.81 mm | - | 47 W/m² | - |
| 1778056462 | 10° C | 94% | 1005 hPa | 3.81 mm | - | 46 W/m² | - |
| 1778055983 | 10° C | 94% | 1004.9 hPa | 3.81 mm | - | 33 W/m² | - |
| 1778055863 | 10° C | 94% | 1005 hPa | 3.81 mm | - | 35 W/m² | - |
| 1778055503 | 10° C | 94% | 1005 hPa | 3.81 mm | - | 37 W/m² | - |
| 1778055260 | 10° C | 94% | 1004.9 hPa | 4.06 mm | - | 39 W/m² | - |
| 1778055021 | 10° C | 94% | 1004.9 hPa | 4.06 mm | - | 39 W/m² | - |
* Rain latest hour (hover to see other rain measurements)
** Current wind speed in m/s (hover to see current wind gust speed)